Sigfox identifier Datetime Temperature Humidity SNR
003A58E8 2019-04-23 14:53:41 16 31 24.9
003A58E8 2019-04-23 14:18:11 16 31 25
003A58E8 2019-04-23 13:42:40 15.8 31 25.1
003A58E8 2019-04-23 13:07:10 15.8 31 24.9
003A58E8 2019-04-23 12:31:41 15.8 31 24.9
003A58E8 2019-04-23 11:56:11 15.8 31 25
003A58E8 2019-04-23 11:20:41 15.6 31 25.1
003A58E8 2019-04-23 10:45:11 15.6 31 25.3
003A58E8 2019-04-23 10:09:41 15.6 31 25.3
003A58E8 2019-04-23 09:34:13 15.6 31 25.3
003A58E8 2019-04-23 08:58:43 15.6 31 25.3
003A58E8 2019-04-23 08:23:14 15.6 31 25.3
003A58E8 2019-04-23 07:47:44 15.6 31 25.3
003A58E8 2019-04-23 07:12:15 15.6 31 25.3
003A58E8 2019-04-23 06:36:46 15.6 31 25.3
003A58E8 2019-04-23 06:01:16 15.6 31 25.3
003A58E8 2019-04-23 05:25:46 15.6 31 25.5
003A58E8 2019-04-23 04:50:15 15.6 31 25.5
003A58E8 2019-04-23 04:14:45 15.6 31 25.7
003A58E8 2019-04-23 03:39:16 15.6 31 25.7
003A58E8 2019-04-23 03:03:47 15.6 31 25.7
003A58E8 2019-04-23 02:28:18 15.7 31 25.9
003A58E8 2019-04-23 01:52:49 15.7 31 25.8
003A58E8 2019-04-23 01:17:20 15.8 31 25.8
003A58E8 2019-04-23 00:41:51 15.8 31 25.8
003A58E8 2019-04-23 00:06:22 15.8 31 25.9
003A58E8 2019-04-22 23:30:53 15.8 31 25.9
003A58E8 2019-04-22 22:55:24 15.8 31 25.9
003A58E8 2019-04-22 22:19:56 15.8 31 25.9
003A58E8 2019-04-22 21:44:27 15.8 31 25.9
003A58E8 2019-04-22 21:08:59 15.9 31 25.9
003A58E8 2019-04-22 20:33:30 15.9 31 25.9
003A58E8 2019-04-22 19:58:02 15.9 31 25.8
003A58E8 2019-04-22 19:22:33 16 31 25.9
003A58E8 2019-04-22 18:47:04 16 31 25.8
003A58E8 2019-04-22 18:11:36 15.8 31 25.7
003A58E8 2019-04-22 17:36:07 15.9 31 25.6
003A58E8 2019-04-22 17:00:38 15.8 30 25.7
003A58E8 2019-04-22 16:25:09 15.8 30 25.7
003A58E8 2019-04-22 15:49:41 15.8 30 25.7
003A58E8 2019-04-22 15:14:12 15.8 30 25.6
003A58E8 2019-04-22 14:38:43 15.8 30 25.5
003A58E8 2019-04-22 14:03:14 15.8 30 25.5
003A58E8 2019-04-22 13:27:46 15.7 30 25.4
003A58E8 2019-04-22 12:52:16 15.7 30 25.4
003A58E8 2019-04-22 12:16:47 15.6 30 25.4
003A58E8 2019-04-22 11:41:18 15.6 30 25.2
003A58E8 2019-04-22 11:05:49 15.6 30 25.4
003A58E8 2019-04-22 10:30:21 15.6 30 25.5
003A58E8 2019-04-22 09:54:52 15.6 30 25.6
003A58E8 2019-04-22 09:19:24 15.6 30 25.6
003A58E8 2019-04-22 08:43:56 15.6 30 25.5
003A58E8 2019-04-22 08:08:27 15.6 30 25.5
003A58E8 2019-04-22 07:32:59 15.6 30 25.7
003A58E8 2019-04-22 06:57:31 15.6 30 25.6
003A58E8 2019-04-22 06:22:04 15.6 30 25.6
003A58E8 2019-04-22 05:46:36 15.6 30 25.5
003A58E8 2019-04-22 05:11:07 15.6 30 25.5
003A58E8 2019-04-22 04:35:38 15.6 30 25.5
003A58E8 2019-04-22 04:00:10 15.6 30 25.6
003A58E8 2019-04-22 03:24:40 15.6 30 25.6
003A58E8 2019-04-22 02:49:11 15.6 30 25.7
003A58E8 2019-04-22 02:13:43 15.6 30 25.7
003A58E8 2019-04-22 01:38:14 15.6 30 25.6
003A58E8 2019-04-22 01:02:44 15.6 30 25.6
003A58E8 2019-04-22 00:27:15 15.6 30 25.7
003A58E8 2019-04-21 23:51:46 15.6 30 25.6
003A58E8 2019-04-21 23:16:17 15.6 30 25.7
003A58E8 2019-04-21 22:40:48 15.6 30 25.7
003A58E8 2019-04-21 22:05:19 15.6 30 25.6
003A58E8 2019-04-21 21:29:49 15.5 30 25.7
003A58E8 2019-04-21 20:54:20 15.6 30 25.7
003A58E8 2019-04-21 20:18:52 15.6 30 25.7
003A58E8 2019-04-21 19:43:23 15.5 30 25.6
003A58E8 2019-04-21 19:07:54 15.5 29 25.3
003A58E8 2019-04-21 18:32:25 15.4 29 25.3
003A58E8 2019-04-21 17:56:56 15.4 29 25.3
003A58E8 2019-04-21 17:21:27 15.4 29 25.3
003A58E8 2019-04-21 16:45:58 15.4 29 25.1
003A58E8 2019-04-21 16:10:28 15.4 29 25.2
003A58E8 2019-04-21 15:34:59 15.5 29 25.3
003A58E8 2019-04-21 14:59:29 15.5 29 25.4
003A58E8 2019-04-21 14:24:01 15.4 29 25.4
003A58E8 2019-04-21 13:48:34 15.5 29 25.5
003A58E8 2019-04-21 13:13:06 15.6 29 25.4
003A58E8 2019-04-21 12:37:39 15.6 29 25.5
003A58E8 2019-04-21 12:02:11 15.6 29 25.5
003A58E8 2019-04-21 11:26:42 15.6 29 25.5
003A58E8 2019-04-21 10:51:12 15.6 29 25.5
003A58E8 2019-04-21 10:15:43 15.6 29 25.6
003A58E8 2019-04-21 09:40:14 15.6 29 25.6
003A58E8 2019-04-21 09:04:46 15.6 29 25.6
003A58E8 2019-04-21 08:29:16 15.6 29 25.6
003A58E8 2019-04-21 07:53:47 15.6 29 25.7
003A58E8 2019-04-21 07:18:17 15.6 29 25.7
003A58E8 2019-04-21 06:42:48 15.6 29 25.6
003A58E8 2019-04-21 06:07:18 15.6 29 25.6
003A58E8 2019-04-21 05:31:50 15.6 29 25.7
003A58E8 2019-04-21 04:56:22 15.6 29 25.7
003A58E8 2019-04-21 04:20:54 15.6 29 25.5
003A58E8 2019-04-21 03:45:25 15.6 29 25.6
003A58E8 2019-04-21 03:09:56 15.6 29 25.6
003A58E8 2019-04-21 02:34:27 15.6 29 25.6
003A58E8 2019-04-21 01:58:57 15.6 29 25.5
003A58E8 2019-04-21 01:23:28 15.6 29 25.4
003A58E8 2019-04-21 00:47:59 15.6 29 25.4
003A58E8 2019-04-21 00:12:29 15.6 29 25.4
003A58E8 2019-04-20 23:36:59 15.6 29 25.5
003A58E8 2019-04-20 23:01:30 15.6 29 25.5
003A58E8 2019-04-20 22:25:59 15.6 29 25.7
003A58E8 2019-04-20 21:50:28 15.6 29 25.6
003A58E8 2019-04-20 21:14:58 15.6 28 25.7
003A58E8 2019-04-20 20:39:27 15.6 28 25.6
003A58E8 2019-04-20 20:03:57 15.6 28 25.5
003A58E8 2019-04-20 19:28:26 15.6 28 25.5
003A58E8 2019-04-20 18:52:56 15.6 28 25.5
003A58E8 2019-04-20 18:17:24 15.6 28 25.3
003A58E8 2019-04-20 17:41:55 15.6 28 25.2
003A58E8 2019-04-20 17:06:24 15.6 28 25.2
003A58E8 2019-04-20 16:30:55 15.6 28 25.2
003A58E8 2019-04-20 15:55:25 15.6 28 25.2
003A58E8 2019-04-20 15:19:55 15.6 28 25.2
003A58E8 2019-04-20 14:44:28 15.6 28 25.1
003A58E8 2019-04-20 14:08:56 15.6 28 25.3
003A58E8 2019-04-20 13:33:26 15.6 28 25.3
003A58E8 2019-04-20 12:57:55 15.6 28 25.1
003A58E8 2019-04-20 12:22:26 15.6 28 25
003A58E8 2019-04-20 11:46:56 15.6 28 25
003A58E8 2019-04-20 11:11:25 15.6 28 24.9
003A58E8 2019-04-20 10:35:56 15.7 28 24.9
003A58E8 2019-04-20 10:00:26 15.6 28 25.1
003A58E8 2019-04-20 09:24:57 15.8 28 25
003A58E8 2019-04-20 08:49:28 15.8 28 25
003A58E8 2019-04-20 08:13:59 15.8 28 24.8
003A58E8 2019-04-20 07:38:29 15.8 28 24.8
003A58E8 2019-04-20 07:03:00 15.8 28 24.8
003A58E8 2019-04-20 06:27:30 15.8 28 24.8
003A58E8 2019-04-20 05:52:02 15.8 28 24.9
003A58E8 2019-04-20 05:16:33 15.8 28 25
003A58E8 2019-04-20 04:41:04 15.8 28 25
003A58E8 2019-04-20 04:05:36 15.9 28 25
003A58E8 2019-04-20 03:30:07 15.9 28 25.1
003A58E8 2019-04-20 02:54:39 16 28 25.1
003A58E8 2019-04-20 02:19:11 16 28 25.1
003A58E8 2019-04-20 01:43:42 16 28 25.1
003A58E8 2019-04-20 01:08:14 16 28 25.2
003A58E8 2019-04-20 00:32:47 16 27 25.3
003A58E8 2019-04-19 23:57:19 16 27 25.4
003A58E8 2019-04-19 23:21:51 16 27 25.4
003A58E8 2019-04-19 22:46:23 16 27 25.4
003A58E8 2019-04-19 22:10:57 16.1 27 25.5
003A58E8 2019-04-19 21:35:28 16.1 27 25.6
003A58E8 2019-04-19 21:00:01 16.2 27 25.6
003A58E8 2019-04-19 20:24:32 16.2 27 25.5
003A58E8 2019-04-19 19:49:04 16.1 27 25.4
003A58E8 2019-04-19 19:13:35 16.2 27 25.3
003A58E8 2019-04-19 18:38:06 16.1 27 25.3
003A58E8 2019-04-19 18:02:38 16.1 27 25.3
003A58E8 2019-04-19 17:27:10 16 27 25.6
003A58E8 2019-04-19 16:51:41 16 27 25.5
003A58E8 2019-04-19 16:16:13 16 27 25.6
003A58E8 2019-04-19 15:40:45 16 27 25.6
003A58E8 2019-04-19 15:05:17 16 27 25.5
003A58E8 2019-04-19 14:29:50 16 27 25.6
003A58E8 2019-04-19 13:54:23 16 27 25.6
003A58E8 2019-04-19 13:18:56 16 27 25.6
003A58E8 2019-04-19 12:43:28 15.9 27 25.6
003A58E8 2019-04-19 12:08:00 15.9 27 25.7
003A58E8 2019-04-19 11:32:33 16 27 25.8
003A58E8 2019-04-19 10:57:06 16 27 25.8
003A58E8 2019-04-19 10:21:38 16 27 25.7
003A58E8 2019-04-19 09:46:10 16 26 25.7
003A58E8 2019-04-19 09:10:42 16 26 25.7
003A58E8 2019-04-19 08:35:14 16 26 25.7
003A58E8 2019-04-19 07:59:47 16 26 25.7
003A58E8 2019-04-19 07:24:19 16 26 25.7
003A58E8 2019-04-19 06:48:50 16 26 25.8
003A58E8 2019-04-19 06:13:23 16 26 25.7
003A58E8 2019-04-19 05:37:54 16.1 26 25.6
003A58E8 2019-04-19 05:02:26 16.2 26 25.8
003A58E8 2019-04-19 04:26:59 16.3 26 25.8
003A58E8 2019-04-19 03:51:31 16.3 26 25.8
003A58E8 2019-04-19 03:16:02 16.3 26 25.7
003A58E8 2019-04-19 02:40:32 16.3 26 25.4
003A58E8 2019-04-19 02:05:05 16.3 26 25.5
003A58E8 2019-04-19 01:29:37 16.5 26 25.4
003A58E8 2019-04-19 00:54:08 16.5 26 25.6
003A58E8 2019-04-19 00:18:41 16.5 26 25.6
003A58E8 2019-04-18 23:43:15 16.5 26 25.6
003A58E8 2019-04-18 23:07:45 16.5 26 25.7
003A58E8 2019-04-18 22:32:16 16.5 26 25.7
003A58E8 2019-04-18 21:56:49 16.5 26 25.7
003A58E8 2019-04-18 21:21:21 16.6 26 25.6
003A58E8 2019-04-18 20:45:51 16.6 26 25.5
003A58E8 2019-04-18 20:10:23 16.5 26 25.3
003A58E8 2019-04-18 19:34:54 16.5 26 25.2
003A58E8 2019-04-18 18:59:26 16.5 26 25.2
003A58E8 2019-04-18 18:23:59 16.5 26 25.1
003A58E8 2019-04-18 17:48:30 16.5 26 25
003A58E8 2019-04-18 17:13:02 16.5 26 24.9
003A58E8 2019-04-18 16:37:33 16.5 25 24.9
003A58E8 2019-04-18 16:02:06 16.3 25 24.7
003A58E8 2019-04-18 15:26:39 16.3 25 24.7
003A58E8 2019-04-18 14:51:11 16.3 25 24.7
003A58E8 2019-04-18 14:15:43 16.3 25 24.4
003A58E8 2019-04-18 13:40:15 16.3 25 24.3
003A58E8 2019-04-18 13:04:47 16.3 25 24.3
003A58E8 2019-04-18 12:29:20 16.3 25 24.4
003A58E8 2019-04-18 11:53:52 16.3 25 24.5
003A58E8 2019-04-18 11:18:24 16.3 25 24.3
003A58E8 2019-04-18 10:42:56 16.3 25 24.4
003A58E8 2019-04-18 10:07:29 16.3 25 24.1
003A58E8 2019-04-18 09:32:01 16.3 25 23.9
003A58E8 2019-04-18 08:56:34 16.3 25 24
003A58E8 2019-04-18 08:21:06 16.3 25 23.9
003A58E8 2019-04-18 07:45:38 16.3 25 23.9
003A58E8 2019-04-18 07:10:10 16.3 25 24
003A58E8 2019-04-18 06:34:43 16.3 25 24.2
003A58E8 2019-04-18 05:59:15 16.3 25 24.2
003A58E8 2019-04-18 05:23:47 16.3 24 24.5
003A58E8 2019-04-18 04:48:18 16.3 24 24.5
003A58E8 2019-04-18 04:12:50 16.4 24 25
003A58E8 2019-04-18 03:37:23 16.5 24 25
003A58E8 2019-04-18 03:01:55 16.5 24 25.2
003A58E8 2019-04-18 02:26:26 16.6 24 25.3
003A58E8 2019-04-18 01:50:59 16.7 24 25.3
003A58E8 2019-04-18 01:15:31 16.7 24 25.3
003A58E8 2019-04-18 00:40:03 16.7 24 25.3
003A58E8 2019-04-18 00:04:35 16.7 24 25.3
003A58E8 2019-04-17 23:29:07 16.7 24 25.2
003A58E8 2019-04-17 22:53:39 16.7 24 25.2
003A58E8 2019-04-17 22:18:12 16.7 24 25.2
003A58E8 2019-04-17 21:42:44 16.7 24 25
003A58E8 2019-04-17 21:07:16 16.7 24 24.9
003A58E8 2019-04-17 20:31:49 16.7 24 24.8
003A58E8 2019-04-17 19:56:20 16.7 24 24.6
003A58E8 2019-04-17 19:20:54 16.7 24 24.6
003A58E8 2019-04-17 18:45:26 16.7 24 24.7
003A58E8 2019-04-17 18:09:59 16.7 23 24.4
003A58E8 2019-04-17 17:34:31 16.8 23 24.5
003A58E8 2019-04-17 16:59:02 16.8 23 24.4
003A58E8 2019-04-17 16:23:34 16.9 23 24.3
003A58E8 2019-04-17 15:48:05 16.9 23 24.1
003A58E8 2019-04-17 15:12:37 16.9 23 24
003A58E8 2019-04-17 14:37:08 16.9 23 23.8
003A58E8 2019-04-17 14:01:39 17.1 23 23.6
003A58E8 2019-04-17 12:50:41 17.1 23 22.8
003A58E8 2019-04-17 12:15:12 17.1 23 22.7
003A58E8 2019-04-17 11:39:44 17.1 23 22.3
003A58E8 2019-04-17 11:04:16 17.1 23 21.9
003A58E8 2019-04-17 10:28:47 17.2 23 21.7
003A58E8 2019-04-17 09:53:18 17.3 23 21.5
003A58E8 2019-04-17 09:17:49 17.5 23 21.3
003A58E8 2019-04-17 08:42:20 17.5 22 21.3
003A58E8 2019-04-17 08:06:52 17.8 22 21.2
003A58E8 2019-04-17 07:31:23 17.8 22 21.8
003A58E8 2019-04-17 06:55:54 17.8 22 21.5
003A58E8 2019-04-17 06:20:25 18 22 21.7
003A58E8 2019-04-17 05:44:56 18 22 21.7
003A58E8 2019-04-17 05:09:27 18 22 21.5
003A58E8 2019-04-17 04:33:58 18 22 21.5
003A58E8 2019-04-17 03:58:29 18.2 22 21.2
003A58E8 2019-04-17 03:22:59 18.2 22 20.8
003A58E8 2019-04-17 02:47:31 18.2 22 20.7
003A58E8 2019-04-17 02:12:01 18.2 22 20.3
003A58E8 2019-04-17 01:36:35 18.3 22 20.1
003A58E8 2019-04-17 01:01:04 18.4 22 19.6
003A58E8 2019-04-17 00:25:35 18.4 22 21.1
003A58E8 2019-04-16 23:50:07 18.6 21 20.9
003A58E8 2019-04-16 23:14:37 18.8 21 20.7
003A58E8 2019-04-16 22:39:07 19 21 20.7
003A58E8 2019-04-16 22:03:37 19 21 20.7
003A58E8 2019-04-16 21:28:07 19.2 22 20.7
003A58E8 2019-04-16 20:52:38 19.3 22 20.6
003A58E8 2019-04-16 20:17:09 19.5 21 20.6
003A58E8 2019-04-16 19:41:40 19.5 21 20.6
003A58E8 2019-04-16 19:06:10 19.7 21 20.5
003A58E8 2019-04-16 18:30:41 19.9 21 20.5
003A58E8 2019-04-16 17:55:13 19.9 21 20.5
003A58E8 2019-04-16 16:44:15 20.3 21 20.6
003A58E8 2019-04-16 16:08:47 20.5 21 19.6
003A58E8 2019-04-16 15:33:18 20.7 21 19.6
003A58E8 2019-04-16 14:57:48 21 21 19.3
003A58E8 2019-04-16 13:46:49 21 22 19.3
003A58E8 2019-04-16 13:11:20 21 22 19.3
003A58E8 2019-04-16 12:35:51 21 22 19.3
003A58E8 2019-04-16 12:00:22 21 21 19.4
003A58E8 2019-04-16 11:24:53 20.9 21 19.3
003A58E8 2019-04-16 10:49:23 20.9 21 19.3
003A58E8 2019-04-16 10:13:56 20.9 21 19.1
003A58E8 2019-04-16 09:38:25 20.9 21 19
003A58E8 2019-04-16 09:02:58 20.8 21 18.8
003A58E8 2019-04-16 07:52:01 21 21 15.7
003A58E8 2019-04-16 07:16:30 20.9 21 15.7
003A58E8 2019-04-16 06:41:00 20.9 21 15.5
003A58E8 2019-04-16 06:05:32 21 21 15.3
003A58E8 2019-04-16 05:30:03 21 21 15.2
003A58E8 2019-04-16 04:54:36 21 21 15
003A58E8 2019-04-16 04:19:06 21 21 15
003A58E8 2019-04-16 03:43:37 21 21 15
003A58E8 2019-04-16 03:08:08 21 21 18.5
003A58E8 2019-04-16 02:32:39 21 20 19.7
003A58E8 2019-04-16 01:57:10 21 20 19.9
003A58E8 2019-04-16 01:21:44 21 20 20.5
003A58E8 2019-04-16 00:46:12 21 20 21.8
003A58E8 2019-04-16 00:10:42 21 20 22.5
003A58E8 2019-04-15 23:35:13 21 20 22.6
003A58E8 2019-04-15 22:59:47 21.1 20 22.7
003A58E8 2019-04-15 22:24:14 21.1 20 22.9
003A58E8 2019-04-15 21:48:45 21.2 20 23.2
003A58E8 2019-04-15 21:13:15 21.2 20 23.3
003A58E8 2019-04-15 20:37:46 21.2 20 23.5
003A58E8 2019-04-15 20:02:16 21.2 19 23.6
003A58E8 2019-04-15 19:26:48 21.2 19 23.8
003A58E8 2019-04-15 18:51:22 21.4 19 24
003A58E8 2019-04-15 18:15:50 21.4 19 24.2
003A58E8 2019-04-15 17:40:23 21.4 19 24.8
003A58E8 2019-04-15 17:04:53 21.6 19 25
003A58E8 2019-04-15 16:29:23 21.6 19 25.2
003A58E8 2019-04-15 15:53:55 21.7 18 25.3
003A58E8 2019-04-15 15:18:26 21.8 18 25.6
003A58E8 2019-04-15 14:42:56 21.9 18 25.7
003A58E8 2019-04-15 14:07:26 22 18 26
003A58E8 2019-04-15 13:31:58 22.2 18 26.3
003A58E8 2019-04-15 12:56:33 22.2 17 26.5
003A58E8 2019-04-15 12:21:00 22.5 17 26.3
003A58E8 2019-04-15 11:45:30 22.5 16 26.2
003A58E8 2019-04-15 11:10:04 22.4 16 26.4
003A58E8 2019-04-15 10:34:32 22.3 16 26.4
003A58E8 2019-04-15 09:59:04 22.2 17 26.1
003A58E8 2019-04-15 09:23:35 22.2 17 25.9
003A58E8 2019-04-15 08:48:05 22.1 16 26
003A58E8 2019-04-15 08:12:36 22 16 26.1
003A58E8 2019-04-15 07:37:07 22 16 26
003A58E8 2019-04-15 07:01:37 21.8 17 26
003A58E8 2019-04-15 06:26:09 21.9 17 26.4
003A58E8 2019-04-15 05:50:39 21.8 17 26.5
003A58E8 2019-04-15 05:15:10 21.8 17 26.5
003A58E8 2019-04-15 04:39:41 21.8 17 26.5
003A58E8 2019-04-15 04:04:13 21.8 17 26.5
003A58E8 2019-04-15 03:28:45 21.8 17 26.4
003A58E8 2019-04-15 02:53:17 21.8 17 26.1
003A58E8 2019-04-15 02:17:49 21.8 17 26.1
003A58E8 2019-04-15 01:42:22 21.8 17 26.1
003A58E8 2019-04-15 01:06:54 21.8 17 26.3
003A58E8 2019-04-15 00:31:27 21.8 17 26.3
003A58E8 2019-04-14 23:55:59 21.8 17 26.3
003A58E8 2019-04-14 23:20:31 21.8 17 26.1
003A58E8 2019-04-14 22:45:03 21.9 17 26.1
003A58E8 2019-04-14 22:09:34 22 18 26
003A58E8 2019-04-14 21:34:06 22 18 26
003A58E8 2019-04-14 20:58:38 22 18 26.1
003A58E8 2019-04-14 20:23:09 22 18 26
003A58E8 2019-04-14 19:47:40 22 18 26.1
003A58E8 2019-04-14 19:12:12 22 18 26.3
003A58E8 2019-04-14 18:36:43 22 18 26.6
003A58E8 2019-04-14 18:01:14 22 18 26.6
003A58E8 2019-04-14 17:25:44 22 18 26.6
003A58E8 2019-04-14 16:50:16 21.9 17 26.6
003A58E8 2019-04-14 16:14:47 22 18 26.6
003A58E8 2019-04-14 15:39:19 22 18 26.4
003A58E8 2019-04-14 15:03:51 22 18 26.4
003A58E8 2019-04-14 14:28:21 22 18 26.5
003A58E8 2019-04-14 13:52:53 22 18 26.6
003A58E8 2019-04-14 13:17:24 22 18 26.7
003A58E8 2019-04-14 12:41:55 22 18 27
003A58E8 2019-04-14 12:06:25 22 18 27
003A58E8 2019-04-14 11:30:56 22 18 27.1
003A58E8 2019-04-14 10:55:28 22 18 27.2
003A58E8 2019-04-14 10:19:58 22 18 27.1
003A58E8 2019-04-14 09:44:30 22 18 27.2
003A58E8 2019-04-14 09:09:00 21.9 18 27.3
003A58E8 2019-04-14 08:33:29 21.9 18 27.3
003A58E8 2019-04-14 07:57:59 21.9 18 27.2
003A58E8 2019-04-14 07:22:30 21.9 17 27.5
003A58E8 2019-04-14 06:47:00 21.9 17 27.4
003A58E8 2019-04-14 06:11:30 21.9 17 27.3
003A58E8 2019-04-14 05:36:01 21.9 17 27.3
003A58E8 2019-04-14 05:00:32 21.9 17 27.2
003A58E8 2019-04-14 04:25:03 22 17 27
003A58E8 2019-04-14 03:49:35 22 17 26.8
003A58E8 2019-04-14 03:14:06 22 17 26.7
003A58E8 2019-04-14 02:38:36 22 17 26.9
003A58E8 2019-04-14 02:03:08 22 18 27
003A58E8 2019-04-14 01:27:38 22 18 26.9
003A58E8 2019-04-14 00:52:09 22 18 27.1
003A58E8 2019-04-14 00:16:39 22 17 27
003A58E8 2019-04-13 23:41:10 22 17 27
003A58E8 2019-04-13 23:05:43 22.1 17 27
003A58E8 2019-04-13 22:30:11 22.1 17 26.9
003A58E8 2019-04-13 21:54:42 22.1 17 26.7
003A58E8 2019-04-13 21:19:13 22.2 17 26.9
003A58E8 2019-04-13 20:43:43 22.2 17 26.9
003A58E8 2019-04-13 20:08:13 22.2 17 26.8
003A58E8 2019-04-13 19:32:43 22.2 17 26.7
003A58E8 2019-04-13 18:57:14 22.2 17 26.6
003A58E8 2019-04-13 18:21:44 22.2 17 26.5
003A58E8 2019-04-13 17:46:15 22.2 17 26.5
003A58E8 2019-04-13 17:10:45 22.2 17 26.5
003A58E8 2019-04-13 16:35:16 22.3 17 26.3
003A58E8 2019-04-13 15:59:47 22.3 17 26.3
003A58E8 2019-04-13 15:24:18 22.4 17 26.3
003A58E8 2019-04-13 14:48:49 22.4 17 26.3
003A58E8 2019-04-13 14:13:19 22.5 17 26.3
003A58E8 2019-04-13 13:37:50 22.5 17 26.4
003A58E8 2019-04-13 13:02:20 22.5 17 26.3
003A58E8 2019-04-13 12:26:49 22.5 17 26.3
003A58E8 2019-04-13 11:51:18 22.5 17 26.2
003A58E8 2019-04-13 11:15:48 22.5 17 26.3
003A58E8 2019-04-13 10:40:19 22.5 17 26.6
003A58E8 2019-04-13 10:04:49 22.4 17 26.6
003A58E8 2019-04-13 09:29:17 22.4 17 26.9
003A58E8 2019-04-13 08:53:47 22.5 17 27
003A58E8 2019-04-13 08:18:17 22.5 17 27
003A58E8 2019-04-13 07:42:47 22.5 17 26.9
003A58E8 2019-04-13 07:07:18 22.5 17 26.9
003A58E8 2019-04-13 06:31:49 22.5 17 26.8
003A58E8 2019-04-13 05:56:20 22.5 17 26.7
003A58E8 2019-04-13 05:20:50 22.5 17 26.7
003A58E8 2019-04-13 04:45:22 22.5 17 27
003A58E8 2019-04-13 04:09:54 22.5 17 26.9
003A58E8 2019-04-13 03:34:24 22.5 17 26.8
003A58E8 2019-04-13 02:58:55 22.5 17 26.8
003A58E8 2019-04-13 02:23:27 22.5 17 26.8
003A58E8 2019-04-13 01:47:59 22.6 17 26.8
003A58E8 2019-04-13 01:12:30 22.7 18 26.9
003A58E8 2019-04-13 00:37:02 22.7 18 27
003A58E8 2019-04-13 00:01:33 22.7 18 27.1
003A58E8 2019-04-12 23:26:05 22.7 18 27.1
003A58E8 2019-04-12 22:50:36 22.7 18 27.2
003A58E8 2019-04-12 22:15:06 22.9 18 27.3
003A58E8 2019-04-12 21:39:37 22.9 18 27.6
003A58E8 2019-04-12 21:04:08 22.9 18 27.4
003A58E8 2019-04-12 20:28:37 22.9 18 27.4
003A58E8 2019-04-12 19:53:07 22.9 18 27.1
003A58E8 2019-04-12 19:17:36 23 17 26.7
003A58E8 2019-04-12 18:42:05 23.1 17 26.2
003A58E8 2019-04-12 18:06:35 23.1 17 25.9
003A58E8 2019-04-12 17:31:04 23.1 18 26
003A58E8 2019-04-12 16:55:33 23.1 18 26.1
003A58E8 2019-04-12 16:20:02 23.1 18 26.1
003A58E8 2019-04-12 15:44:30 22.9 19 26.3
003A58E8 2019-04-12 15:08:59 22.7 19 26.3
003A58E8 2019-04-12 14:33:29 22.5 20 26.4
003A58E8 2019-04-12 13:57:59 22.1 21 21.8
003A58E8 2019-04-12 13:22:27 21.4 23 6